Погода в Свольвере

Норвегия     68°14′10″N   14°33′18″E
темп.,
°C
ветер,
м/с
пор.,
м/с
влажн.,
%
обл.,
%
осадки,
мм/ч
давл.,
гПа
погр.,
м
20 сентября, пн
пн2023:00+9ююв3371100 0.0 102548
02:00+8ююв3482100 0.0 1025145
05:00+8юв3479100 0.0 1024193
08:00+7вюв347558 0.0 1024195
11:00+9вюв346317 0.0 1023381
14:00+10юв35585 0.0 1023566
17:00+10юв37625 0.0 1021512
20:00+8юв456622 0.0 1019180
21 сентября, вт
вт2123:00+8юв466738 0.0 1018316
02:00+8юв566658 0.1 1016393
05:00+6юв4668100 0.0 1014383
08:00+6юв6974100 0.4 1012703
11:00+5вюв4689100 1.9 1013443
14:00+7юв5981100 2.2 1011578
17:00+8ююв71573100 0.4 10101399
20:00+8ю81783100 3.2 10101449
22 сентября, ср
ср2223:00+9ю101581100 0.8 10091262
02:00+8ююв71482100 1.4 10051391
05:00+8ююв102390100 6.4 10001772
08:00+9ю132689100 18.5 9981637
11:00+10ююз182790100 8.9 9961417
14:00+10ююз182595100 16.8 9961649
17:00+10ююз12188686 6.1 9971213
20:00+10ююз131988100 6.8 9961320
23 сентября, чт
чт2323:00+9ююз141983100 1.4 9961482
02:00+8ююз12178530 2.4 9951426
05:00+8ююз12168416 1.3 9941410
08:00+8ююз1115849 3.1 9941309
11:00+8ююз10138198 1.9 9931273
14:00+8ююз9128050 3.1 9921207
17:00+8ююз8108028 1.5 991988
20:00+7ююз5782100 2.4 991500
24 сентября, пт
пт2423:00+7юз3480100 0.6 990422
02:00+7юз2377100 0.6 990432
05:00+7юз237778 0.0 989445
08:00+7ююз2376100 0.1 989404
11:00+8ююв2277100 0.7 989439
14:00+8зсз0176100 1.3 989598
17:00+7ссз2387100 1.2 989420
20:00+6ссз3483100 2.3 991397